| time (UTC) | temp F | wind direction | speed MPH | gust MPH | rain 1hr in | rain 24hr in | rain mn in | humidity % | barometer mb |
| 20260507080013 | 53 | 67 | 4.0 | 9.0 | 0.00 | 0.00 | 0.00 | 71 | 1015.3 |
| 20260507060012 | 49 | 73 | 6.0 | 11.0 | 0.00 | 0.00 | 0.00 | 80 | 1014.6 |
| 20260507050011 | 45 | 77 | 3.0 | 5.0 | 0.00 | 0.00 | 0.00 | 87 | 1014.2 |
| 20260507041011 | 42 | 61 | 0.0 | 0.0 | 0.00 | 0.00 | 0.00 | 89 | 1013.7 |
| 20260507034015 | 42 | 27 | 0.0 | 1.0 | 0.00 | 0.00 | 0.00 | 88 | 1013.4 |
| 20260507025015 | 43 | 46 | 0.0 | 3.0 | 0.00 | 0.00 | 0.00 | 86 | 1013.1 |
| 20260507023014 | 44 | 38 | 1.0 | 3.0 | 0.00 | 0.00 | 0.00 | 86 | 1013.0 |
| 20260507021014 | 44 | 74 | 1.0 | 3.0 | 0.00 | 0.00 | 0.00 | 85 | 1012.9 |
| 20260507011014 | 46 | 87 | 3.0 | 5.0 | 0.00 | 0.00 | 0.00 | 83 | 1012.5 |
| 20260507003012 | 47 | 48 | 5.0 | 8.0 | 0.00 | 0.00 | 0.00 | 82 | 1012.4 |
| 20260506232012 | 47 | 65 | 5.0 | 11.0 | 0.00 | 0.00 | 0.00 | 82 | 1012.2 |
| 20260506205015 | 49 | 53 | 4.0 | 10.0 | 0.00 | 0.00 | 0.00 | 82 | 1011.5 |
| 20260506204014 | 49 | 355 | 2.0 | 6.0 | 0.00 | 0.00 | 0.00 | 82 | 1011.3 |
| 20260506192013 | 51 | 56 | 7.0 | 15.0 | 0.00 | 0.00 | 0.00 | 75 | 1010.7 |
| 20260506181012 | 53 | 63 | 3.0 | 10.0 | 0.00 | 0.00 | 0.00 | 66 | 1010.0 |
| 20260506164011 | 55 | 43 | 5.0 | 9.0 | 0.00 | 0.00 | 0.00 | 66 | 1009.1 |
| 20260506153015 | 57 | 40 | 2.0 | 11.0 | 0.00 | 0.00 | 0.00 | 63 | 1009.3 |
| 20260506145014 | 57 | 34 | 4.0 | 12.0 | 0.00 | 0.00 | 0.00 | 59 | 1009.2 |
| 20260506114012 | 59 | 30 | 5.0 | 12.0 | 0.00 | 0.00 | 0.00 | 48 | 1008.8 |
| 20260506113012 | 58 | 331 | 5.0 | 12.0 | 0.00 | 0.00 | 0.00 | 53 | 1008.8 |
| 20260506103011 | 57 | 80 | 5.0 | 12.0 | 0.00 | 0.00 | 0.00 | 48 | 1008.8 |